Home   Weather   Pamplona   Past weeks

Flag for Spain Past Weather in Pamplona, Spain — Yesterday and Last 2 Weeks

Now
37 °F

Chilly.


Feels Like: 37 °F
Forecast: 31 / 44 °F
Wind: 1 mph from North

Location: Pamplona / Noain

Current Time: Jan 23, 2017 at 5:48:46 am

Latest Report: Jan 23, 2017 at 5:00 am


Visibility: N/A

Pressure: 30.12 "Hg

Humidity: 81%

Dew Point: 32 °F

Location of PamplonaLocation

Past Weather in Pamplona — Graph

°F

Pamplona Temperature Yesterday

Maximum temperature yesterday: 45 °F (at 12:30 pm)
Minimum temperature yesterday: 28 °F (at 1:00 am)
Average temperature yesterday: 39 °F

High & Low Weather Summary for the Past Weeks

 TemperatureHumidityPressure
High55 °F (Jan 11, 1:30 pm)100% (Jan 10, 8:00 am)30.45 "Hg (Jan 10, 8:00 am)
Low21 °F (Jan 20, 7:30 am)20% (Jan 8, 11:30 am)30.04 "Hg (Jan 10, 8:00 am)
Average38 °F81%30.21 "Hg
* Reported Jan 8 4:00 am — Jan 23 4:30 am, Pamplona, Weather by CustomWeather, © 2017

Note: Actual official high and low records may vary slightly from our data, if they occured in-between our weather recording intervals... More about our weather records

Advertising

Pamplona Weather History for the Previous 24 Hours

Scroll right to see more
 ConditionsComfort  
Time TempWeatherWind HumidityBarometerVisibility
4:30 am
Mon, Jan 23
37 °FChilly.No wind81%30.12 "HgN/A
4:00 am37 °FChilly.No wind81%30.12 "HgN/A
3:30 am36 °FChilly.1 mph81%30.12 "HgN/A
3:00 am34 °FChilly.1 mph75%30.12 "HgN/A
2:30 am34 °FChilly.2 mph81%30.12 "HgN/A
2:00 am36 °FChilly.1 mph81%30.12 "HgN/A
1:30 am37 °FChilly.1 mph81%30.12 "HgN/A
1:00 am37 °FChilly.1 mph81%30.12 "HgN/A
12:30 am37 °FChilly.No wind75%30.12 "HgN/A
12:00 am36 °FClear.1 mph81%30.15 "Hg10 mi
11:30 pm
Sun, Jan 22
36 °FClear.1 mph81%30.12 "Hg10 mi
11:00 pm39 °FClear.5 mph70%30.12 "Hg10 mi
10:30 pm37 °FClear.7 mph70%30.12 "Hg10 mi
10:00 pm39 °FClear.5 mph65%30.12 "Hg10 mi
9:30 pm39 °FClear.8 mph70%30.12 "Hg10 mi
9:00 pm41 °FPassing clouds.8 mph70%30.12 "HgN/A
8:30 pm41 °FClear.9 mph70%30.12 "Hg10 mi
8:00 pm43 °FClear.10 mph71%30.12 "Hg10 mi
7:30 pm43 °FClear.12 mph71%30.09 "Hg10 mi
7:00 pm43 °FClear.13 mph66%30.09 "Hg10 mi
6:30 pm43 °FPassing clouds.13 mph66%30.09 "HgN/A
6:00 pm45 °FPassing clouds.13 mph61%30.09 "HgN/A
5:30 pm45 °FPassing clouds.12 mph61%30.07 "HgN/A
5:00 pm45 °FPassing clouds.12 mph61%30.07 "HgN/A
4:30 pm45 °FScattered clouds.14 mph66%30.07 "HgN/A
4:00 pm45 °FScattered clouds.15 mph61%30.07 "HgN/A
3:30 pm45 °FSunny.16 mph61%30.07 "Hg10 mi
3:00 pm45 °FSunny.17 mph61%30.07 "Hg10 mi
2:30 pm45 °FSunny.16 mph57%30.07 "Hg10 mi
2:00 pm45 °FSunny.14 mph57%30.07 "Hg10 mi
1:30 pm45 °FPassing clouds.8 mph61%30.09 "HgN/A
1:00 pm45 °FPassing clouds.6 mph61%30.09 "HgN/A
12:30 pm45 °FPassing clouds.7 mph61%30.09 "HgN/A
12:00 pm43 °FSunny.9 mph71%30.09 "Hg10 mi
11:30 am41 °FSunny.10 mph76%30.09 "Hg10 mi
11:00 am41 °FSunny.13 mph76%30.09 "Hg10 mi
10:30 am41 °FSunny.14 mph76%30.09 "Hg10 mi
10:00 am39 °FSunny.16 mph75%30.09 "Hg10 mi
9:30 am39 °FPassing clouds.12 mph75%30.07 "HgN/A
9:00 am39 °FSunny.17 mph75%30.07 "Hg10 mi
8:30 am39 °FSunny.17 mph75%30.07 "Hg10 mi
8:00 am37 °FClear.18 mph81%30.04 "Hg10 mi
7:30 am37 °FClear.16 mph75%30.04 "Hg10 mi
7:00 am37 °FClear.15 mph75%30.04 "Hg10 mi
6:30 am37 °FClear.16 mph70%30.04 "Hg10 mi
6:00 am37 °FClear.15 mph70%30.04 "Hg10 mi
5:30 am37 °FClear.14 mph65%30.04 "Hg10 mi
5:00 am37 °FClear.14 mph65%30.04 "Hg10 mi
Weather by CustomWeather, © 2017

See weather overviewHow to use our weather pages